Weather observations for the past three days for
Nuiqsut, Nuiqsut Airport
Metric (Imperial)
Date Time (akdt) Wind (kph) Vis. (km) Weather Sky Cond. Temperature (ºC) Relative Humidity Wind Chill (°C) Heat Index (°C) Pressure Precipitation (cm)
Air Dwpt 6 hour altimeter (cm) sea level (mb) 1 hr 3 hr 6 hr
Max. Min.
16 03:53 E 9 16.09 Fair CLR 5.6 3.3 10 4.4 85% 4 76.68 1022.4
16 02:53 E 9 16.09 Fair CLR 5 2.8 86% 3 76.71 1022.7
16 01:53 E 9 16.09 Fair CLR 5.6 3.3 85% 4 76.73 1022.9
16 00:53 NE 9 16.09 Fair CLR 6.7 3.9 83% 5 76.76 1023.3
15 23:53 NE 11 16.09 Fair CLR 7.2 3.3 77% 5 76.76 1023.4
15 22:53 NE 7 16.09 Fair CLR 9.4 3.3 66% 9 76.76 1023.5
15 21:53 NE 11 16.09 Fair CLR 10 3.3 11.1 9.4 63% 9 76.76 1023.3
15 20:53 NE 9 16.09 Fair CLR 10.6 3.3 61% 76.78 1023.7
15 19:53 NE 9 16.09 Fair CLR 11.1 3.3 59% 76.78 1023.9
15 18:53 NE 11 16.09 Fair CLR 11.1 3.3 59% 76.78 1023.9
15 17:53 NE 9 16.09 Fair CLR 10 2.8 61% 9 76.81 1024.0
15 16:53 NE 15 16.09 Fair CLR 10 2.8 61% 8 76.81 1023.9
15 15:53 N 13 16.09 Fair CLR 10 2.8 11.1 2.8 61% 8 76.78 1023.9
15 14:53 N 13 16.09 Fair CLR 10 2.2 59% 8 76.81 1024.0
15 13:53 N 9 16.09 Fair CLR 10 2.2 59% 9 76.81 1024.0
15 12:53 NE 6 16.09 Fair CLR 8.9 2.2 63% 76.81 1024.2
15 11:53 NE 7 16.09 Fair CLR 6.7 1.7 71% 6 76.84 1024.3
15 10:53 NE 6 16.09 A Few Clouds FEW007 5 1.1 76% 76.84 1024.5
15 09:53 W 6 16.09 Overcast OVC005 2.8 0.6 2.8 1.7 86% 76.86 1024.7
15 08:53 NW 6 12.87 Overcast OVC004 1.7 1.1 96% 76.84 1024.6
15 07:53 NW 7 1.61 Fog/Mist OVC002 1.7 0.6 93% -0 76.84 1024.5
15 06:53 NW 9 6.44 Fog/Mist OVC003 2.8 1.1 89% 1 76.84 1024.3
15 05:53 Calm 4.02 Fog/Mist OVC002 2.2 2.2 100% 76.81 1024.0
15 04:53 Calm 2.82 Fog/Mist OVC002 2.2 1.7 97% 76.81 1024.1
15 03:48 Calm 2.41 Fog/Mist OVC002 2.2 2.2 6.7 2.2 100% 76.81 1024.1
15 02:53 E 7 3.22 Fog/Mist OVC002 2.2 1.7 97% 0 76.81 1024.0
15 01:53 NE 9 16.09 Overcast OVC003 2.8 1.7 93% 1 76.81 1024.0
15 00:53 E 11 16.09 Mostly Cloudy BKN005 2.8 1.1 89% 0 76.78 1023.9
14 23:53 NE 9 16.09 Fair CLR 3.9 1.7 86% 2 76.78 1023.7
14 22:53 E 11 16.09 Fair CLR 5 1.7 79% 3 76.76 1023.5
14 21:53 NE 9 16.09 Fair CLR 6.7 1.7 7.8 6.1 71% 5 76.76 1023.5
14 20:53 NE 15 16.09 Fair CLR 6.7 1.7 71% 4 76.73 1023.2
14 19:53 N 17 16.09 Fair CLR 6.7 2.2 73% 4 76.73 1023.2
14 18:53 N 22 16.09 Fair CLR 6.7 2.2 73% 3 76.73 1023.0
14 17:53 N 20 16.09 Fair CLR 6.7 2.2 73% 3 76.73 1023.0
14 16:53 N 20 16.09 Fair CLR 6.7 1.7 71% 3 76.73 1023.1
14 15:53 NE 13 16.09 Fair CLR 8.3 1.1 8.3 1.1 61% 6 76.73 1023.2
14 14:53 NE 13 16.09 Fair CLR 7 0 0% 5 76.76 1023.3
14 13:53 NE 15 16.09 Fair CLR 6 0 0% 3 76.76 0.0
14 12:53 NE 13 16.09 A Few Clouds FEW014 5 0 0% 2 76.76 1023.4
14 11:53 NE 11 16.09 Overcast OVC009 3 0 0% 0 76.76 1023.3
14 10:53 Vrbl 9 16.09 Overcast OVC007 2 0 0% -0 76.78 1023.7
14 09:53 NE 9 16.09 Overcast OVC004 1 0 1.1 -0.6 0% -2 76.76 1023.6
14 08:53 E 13 11.27 Overcast OVC003 1 0 0% -2 76.76 1023.4
14 07:53 E 11 6.44 Overcast with Haze OVC002 0 0 0% -3 76.76 1023.4
14 06:53 E 13 1.61 Fog/Mist OVC002 -1 0 0% -5 76.78 1023.7
14 05:53 NE 15 1.21 Fog/Mist OVC002 -1 0 0% -5 76.76 1023.3
14 04:53 E 15 1.21 Fog/Mist OVC002 0 0 0% -4 76.73 1023.2
14 03:53 E 17 0.40 Fog VV003 0 0 7.8 -0.6 0% -4 76.73 1023.2
14 02:53 E 15 2.82 Fog/Mist OVC002 0 0 0% -4 76.73 1023.1
14 00:53 NE 26 16.09 Fair CLR 1 0 0% -4 76.68 1022.5
13 23:53 NE 19 16.09 Fair CLR 3 0 0% -1 76.68 1022.4
13 22:53 NE 24 16.09 Fair CLR 5 0 0% 1 76.66 1021.9
13 21:53 NE 22 16.09 Fair CLR 6 0 11.7 6.1 0% 2 76.63 1021.8
13 20:53 NE 24 16.09 Fair CLR 8 0 0% 5 76.63 1021.6
13 19:53 NE 28 16.09 Fair CLR 8.9 1.1 58% 6 76.61 1021.4
13 18:53 NE 28 16.09 Fair CLR 10 1.7 57% 7 76.61 1021.2
13 17:53 NE 28 16.09 Fair CLR 10.6 2.2 56% 76.61 1021.3
13 16:53 NE 28 G 44 16.09 Fair CLR 11.1 2.8 57% 76.61 1021.3
13 15:53 E 28 16.09 Fair CLR 11.7 2.2 11.7 6.7 52% 76.61 1021.3
13 14:53 E 28 16.09 Fair CLR 11.1 1.1 50% 76.58 1021.2
13 13:53 E 30 16.09 Fair CLR 11.1 1.1 50% 76.58 1021.2
13 12:53 E 24 16.09 Fair CLR 10.6 1.1 52% 76.58 1021.2
13 11:53 E 30 16.09 Fair CLR 9.4 1.1 56% 6 76.58 1021.2
13 10:53 E 28 16.09 Fair CLR 7.8 1.1 63% 4 76.58 1021.1
13 09:53 E 28 16.09 Fair CLR 6.7 1.1 6.7 1.1 68% 3 76.58 1021.1
13 08:53 E 24 16.09 Fair CLR 5 0.6 73% 1 76.58 1020.9
13 07:53 E 17 16.09 Fair CLR 2.8 0.6 86% -1 76.56 1020.8
13 06:53 E 19 16.09 Fair CLR 1.1 -0.6 89% -3 76.56 1020.8
13 05:53 E 19 16.09 Fair CLR 1.7 -0.6 85% -2 76.53 1020.4
13 04:53 E 20 16.09 Fair CLR 1.1 -0.6 89% -3 76.53 1020.2
Date Time (akdt) Wind (kph) Vis. (km) Weather Sky Cond. Air Dwpt Max. Min. Relative Humidity Wind Chill (°C) Heat Index (°C) altimeter (cm) sea level (mb) 1 hr 3 hr 6 hr
6 hour
Temperature (ºC) Pressure Precipitation (cm)